Regional Weather Roundup
Issued by NWS

Home | Current Version | Previous Version | Graphics & Text | Print | Product List | Glossary On
Versions: 1 2 3 4 5 6 7 8 9 10 11 12 13 14 15 16 17 18 19 20 21 22 23 24 25 26 27 28 29 30 31 32 33 34 35 36 37 38 39 40 41 42 43 44 45 46 47 48 49 50
000
ASUS43 KMKX 260000
RWRWI

WISCONSIN REGIONAL WEATHER ROUNDUP
NATIONAL WEATHER SERVICE MILWAUKEE/SULLIVAN WI
600 PM CST TUE NOV 25 2014

NOTE: "FAIR" INDICATES FEW OR NO CLOUDS BELOW 12,000 FEET WITH NO
SIGNIFICANT WEATHER AND/OR OBSTRUCTIONS TO VISIBILITY.

WIZ001-002-006>008-014>016-023>028-260100-
NORTHWEST WISCONSIN

CITY           SKY/WX    TMP DP  RH WIND       PRES   REMARKS
SUPERIOR ARPT  PTCLDY    16   9  73 SW5       30.04R WCI   9
ASHLAND        PTCLDY    14  11  87 SW5       30.05R WCI   6
6HR MIN TEMP:  14; 6HR MAX TEMP:  22;

HAYWARD        CLOUDY    18  13  80 SW5       30.02R WCI  11
6HR MIN TEMP:  15; 6HR MAX TEMP:  19;

SIREN          CLOUDY    20  13  74 S3        30.03S
CUMBERLAND     CLOUDY    19  14  79 S5        30.01S WCI  13
RICE LAKE      CLOUDY    21  14  74 SE3       30.04S
CHETEK         CLOUDY    20  14  76 CALM      30.04S
LADYSMITH      CLOUDY    21  15  76 S5        30.04S WCI  15
EAU CLAIRE     NOT AVBL
MENOMONIE      CLOUDY    23  15  73 S3        30.05S
NEW RICHMOND   CLOUDY    22  15  75 S5        30.03S WCI  16
OSCEOLA        CLOUDY    22  16  75 S6        30.06F WCI  15
$$

WIZ003>005-009-010-017-018-260100-
NORTH CENTRAL WISCONSIN

CITY           SKY/WX    TMP DP  RH WIND       PRES   REMARKS
MANITOWISH WTR CLEAR     10   7  89 CALM      29.99R
ARBOR VITAE    CLEAR     17  14  89 CALM      29.99S
WOODRUFF       CLEAR     17  14  89 CALM      29.99S
RHINELANDER    CLEAR      9   7  92 CALM      30.01R
6HR MIN TEMP:   9; 6HR MAX TEMP:  20; 6HR PCP: TRACE;

EAGLE RIVER    CLEAR      9   6  85 CALM      29.99R
LAND O LAKES   CLEAR      7   4  89 CALM      30.00R
PHILLIPS       PTCLDY    14  11  88 CALM      30.00S
TOMAHAWK       CLEAR      9   7  91 CALM      30.02S
MEDFORD        CLOUDY    15  11  85 S3        30.03R
MERRILL        CLEAR     15  12  86 SW5       30.04S WCI   8
$$

WIZ029-030-035-036-043>047-260100-
CENTRAL WISCONSIN

CITY           SKY/WX    TMP DP  RH WIND       PRES   REMARKS
WAUSAU         CLEAR     16  11  80 SW3       30.05S
6HR MIN TEMP:  15; 6HR MAX TEMP:  19; 6HR PCP: TRACE;

MOSINEE        CLEAR     12  12 100 CALM      30.07R
MARSHFIELD     CLOUDY    19  12  74 S3        30.05S
6HR MIN TEMP:  17; 6HR MAX TEMP:  21;

STEVENS POINT  CLEAR     12  11  94 CALM      30.09R
WAUPACA        MOCLDY    18  14  86 SW6       30.11R WCI  10
WAUTOMA        NOT AVBL
WISC RAPIDS    MOCLDY    13   9  84 S3        30.09S
6HR MIN TEMP:  13; 6HR MAX TEMP:  22;

CAMP DOUGLAS   NOT AVBL
$$

WIZ011>013-019>022-031-037>040-048>050-260100-
NORTHEAST WISCONSIN

CITY           SKY/WX    TMP DP  RH WIND       PRES   REMARKS
ANTIGO         CLEAR     11  10  94 SW6       30.03S WCI   2
SHAWANO        PTCLDY    21  16  81 SW3       30.10R
OCONTO         CLOUDY    23  19  84 SW3       30.09R
STURGEON BAY   CLOUDY    25  16  68 SW6       30.09R WCI  18
6HR MIN TEMP:  23; 6HR MAX TEMP:  25;

GREEN BAY      CLOUDY    22  16  78 SW9       30.11R WCI  12
6HR MIN TEMP:  22; 6HR MAX TEMP:  25;

MANITOWOC      NOT AVBL
APPLETON       CLOUDY    21  16  79 VRB6      30.10R WCI  14
CLINTONVILLE   CLOUDY    19  14  79 CALM      30.10R
OSHKOSH        CLOUDY    20  14  77 W6        30.12R WCI  12
6HR MIN TEMP:  20; 6HR MAX TEMP:  22;

$$

WIZ032>034-041-042-053>061-260100-
SOUTHWEST WISCONSIN

CITY           SKY/WX    TMP DP  RH WIND       PRES   REMARKS
LA CROSSE      CLOUDY    24  14  65 S6        30.09F WCI  17
6HR MIN TEMP:  23; 6HR MAX TEMP:  28;

SPARTA         CLOUDY    15  14  95 CALM      30.10S
VIROQUA        PTCLDY    19  13  78 CALM      30.07R
BOSCOBEL       CLEAR     18  12  77 CALM      30.13R
6HR MIN TEMP:  17; 6HR MAX TEMP:  26;

PRAIRIE DU CHI CLEAR     20  14  78 CALM      30.12S
PLATTEVILLE    CLEAR     19  15  84 CALM      30.11S
$$

WIZ056-057-062-063-064-067-068-260100-
SOUTH CENTRAL WISCONSIN

CITY           SKY/WX    TMP DP  RH WIND       PRES   REMARKS
REEDSBURG      CLEAR     17  15  92 CALM      30.10R
BARABOO/DELLS  CLEAR     15  13  92 CALM      30.09S
LONE ROCK      NOT AVBL
MINERAL POINT  CLEAR     21  16  79 SW6       30.09S WCI  14
MADISON        MOCLDY    22  15  75 CALM      30.11F
6HR MIN TEMP:  21; 6HR MAX TEMP:  23;

MIDDLETON      CLEAR     21  16  81 S3        30.10F
WATERTOWN      CLOUDY    21  17  85 SW5       30.11F WCI  15
MONROE         CLEAR     21  18  86 SW5       30.09F WCI  15
JANESVILLE     PTCLDY    19  14  79 SW6       30.12F WCI  11
$$

WIZ051-052-058>065-066-070>072-260100-
SOUTHEAST WISCONSIN

CITY           SKY/WX    TMP DP  RH WIND       PRES   REMARKS
MILWAUKEE      CLOUDY    22  15  75 W9        30.14R WCI  12
6HR MIN TEMP:  22; 6HR MAX TEMP:  27;

WAUKESHA       CLOUDY    19  16  86 W9        30.13S WCI   9
MILWAUKEE/TIMM CLOUDY    21  16  79 W8        30.14S WCI  12
RACINE         CLOUDY    22  16  78 W9        30.15S WCI  12
6HR MIN TEMP:  22; 6HR MAX TEMP:  26;

BURLINGTON     CLOUDY    20  15  81 W6        30.13S WCI  12
KENOSHA        CLOUDY    22  17  81 W8        30.14R WCI  12
6HR MIN TEMP:  22; 6HR MAX TEMP:  25;

FOND DU LAC    CLOUDY    20  14  77 W6        30.12S WCI  12
6HR MIN TEMP:  20; 6HR MAX TEMP:  22; 6HR PCP: TRACE;

SHEBOYGAN      CLOUDY    21  15  78 SW10      30.12R WCI  10
6HR MIN TEMP:  21; 6HR MAX TEMP:  23;

WEST BEND      CLOUDY    21  16  79 W7        30.11S WCI  13
JUNEAU         CLOUDY    21  17  83 SW6       30.12S WCI  13
$$

LSZ147-162-260100-
LAKE SUPERIOR

STATION/POSITION TIME  TEMP    WIND        PRES    WAVE
                       AIR SEA DIR/SP/G            HT/PER
                 (UTC) (F)     (DEG/KT/KT) (MB)    (FT/S)
DEVILS ISLAND    2300   23     210/ 10/ 11 1017.7R
PORT WING        2300   20     170/  4/  6 1016.9
SAXON HARBOR     2300   18        CALM     1017.3R
$$

LMZ867-665-643>646-260100-
LAKE MICHIGAN

STATION/POSITION TIME  TEMP    WIND        PRES    WAVE
                       AIR SEA DIR/SP/G            HT/PER
                 (UTC) (F)     (DEG/KT/KT) (MB)    (FT/S)
CHAMBERS ISLAND  2300   26     220/  4/  6 1018.6R
N MID LAKE BUOY  2250   28 42  290/ 12/ 17 1018.6R   2/ 4
NORTHPORT PIER   2301   26      CALM  /  6 1018.3R
SISTER BAY       2313          290/  4/  9   N/A
ALGOMA LAKESHORE 2243          260/  5/  8   N/A
KEWAUNEE LAKESHO 2300   23     240/  2/  5 1018.4R
SHEBOYGAN LAKESH 2300   23 35  240/  9/ 11 1021.4R
PORT WASHINGTON  2340   23     270/  4/  7 1021.0S
MILWAUKEE LAKESH 2300   23     290/  9/ 14   N/A
S MID LAKE BUOY  2250   29 42  260/ 12/ 16 1020.9S   3/ 6
KENOSHA   LAKESH 2300   24     240/  8/ 13 1020.7R
$$

TC  - TEMPERATURE IN CELSIUS
VSB - VISIBILITY IN STATUTE MILES
WCI - WIND CHILL INDEX
HX  - HEAT INDEX




USA.gov is the U.S. government's official web portal to all federal, state and local government web resources and services.